Regional Weather Roundup
Issued by NWS

Home | Current Version | Previous Version | Text Only | Print | Product List | Glossary Off
Versions: 1 2 3 4 5 6 7 8 9 10 11 12 13 14 15 16 17 18 19 20 21 22 23 24 25 26 27 28 29 30 31 32 33 34 35 36 37 38 39 40 41 42 43 44 45 46 47 48 49 50

394
ASUS43 KMPX 220401
RWRMN
WEATHER ROUNDUP FOR MINNESOTA
NATIONAL WEATHER SERVICE TWIN CITIES/CHANHASSEN MN
1100 PM CDT THU SEP 21 2017


NOTE: "FAIR" INDICATES FEW OR NO CLOUDS BELOW 12,000 FEET WITH NO
SIGNIFICANT WEATHER AND/OR OBSTRUCTIONS TO VISIBILITY. N/A MEANS
CURRENT SKY AND/OR WEATHER CONDITIONS ARE NOT AVAILABLE.

MNZ060>063-068>070-220500-
   Twin Cities Metro

CITY           SKY/WX    TMP DP  RH WIND       PRES   REMARKS
TWIN CITIES    PTCLDY    76  68  76 SE8       29.83R
ST PAUL        CLEAR     75  67  76 SE12      29.84R
CRYSTAL        PTCLDY    77  65  66 S8        29.81R
BLAINE         CLEAR     79  66  65 SE9       29.82S
LAKEVILLE      PTCLDY    73  68  83 S5        29.84R
EDEN PRAIRIE   MOCLDY    79  69  71 SE12      29.81R
SOUTH ST PAUL  CLEAR     76  65  68 SE7       29.84R
LAKE ELMO      FAIR      73  66  78 SE7       29.86R
$$
MNZ001>005-007-008-013>017-022>024-027-028-220500-
   Northwest Minnesota

CITY           SKY/WX    TMP DP  RH WIND       PRES   REMARKS
BEMIDJI        MOCLDY    65  60  84 SE5       29.80S
HALLOCK          N/A     66  54  63 SE8       29.73S
ROSEAU         CLEAR     64  54  68 SE3       29.76F
WARROAD        CLEAR     63  54  72 SE5       29.78F
CROOKSTON      CLEAR     66  55  68 E5        29.74S
FOSSTON        PTCLDY    66  59  77 SE8       29.77R
DETROIT LAKES  CLEAR     70  64  83 SE6       29.78S
MOORHEAD       CLEAR     72  66  83 SE9       29.72S
PARK RAPIDS    CLEAR     71  65  81 SE9       29.79S
MAHNOMEN       FAIR      69  62  77 SE10G20   29.75S
$$
MNZ006-009>011-018-025>026-220500-
   North Central Minnesota

CITY           SKY/WX    TMP DP  RH WIND       PRES   REMARKS
BAUDETTE       PTCLDY    62  52  69 SE7       29.79S
FLAG ISLAND    CLEAR     64  52  63 SE5       29.78S
INTL FALLS     MOCLDY    64  55  72 SE8       29.83S
WASKISH        PTCLDY    66  59  77 SE7       29.79S
BIG FORK       CLEAR     63  57  82 SE5       29.84S
LONGVILLE      MOCLDY    64  61  88 SE5       29.82F
GRAND RAPIDS   MOCLDY    63  58  83 SE8       29.87S
CRANE LAKE     MOCLDY    59  54  82 CALM      29.88S
ORR            MOCLDY    61  52  72 SE8G17    29.84S
COOK           MOCLDY    61  54  77 SE7       29.88S
WALKER         FAIR      65  60  83 E3        29.81S
$$
MNZ012-019>021-037-220500-
   Northeast Minnesota

CITY           SKY/WX    TMP DP  RH WIND       PRES   REMARKS
DULUTH         CLEAR     57  54  89 E10       29.90S
ELY            MOCLDY    61  52  72 SE5       29.90S
HIBBING        MOCLDY    59  54  83 E5        29.88F
EVELETH        MOCLDY    60  51  73 E3        29.90F
DULUTH HARBOR  MOCLDY    61  57  88 NE21      29.90F
TWO HARBORS    CLEAR     63  55  77 NE5       29.90F
SILVER BAY     CLOUDY    61  54  77 NE5       29.92F
GRAND MARAIS     N/A     63  52  67 NE10      29.94F
$$
MNZ029>031-032-039>041-046>048-054>057-064-220500-
   West Central Minnesota

CITY           SKY/WX    TMP DP  RH WIND       PRES   REMARKS
FERGUS FALLS   CLEAR     73  68  83 SE9       29.73S
WHEATON        CLEAR     70  66  88 SE7       29.73S FOG
MORRIS         PTCLDY    73  70  88 SE6       29.73S
ALEXANDRIA     CLEAR     72  68  87 SE9       29.79S
ELBOW LAKE     FAIR      72  69  89 SE9       29.75S
WADENA         PTCLDY    70  64  83 SE6       29.78S
GLENWOOD       CLEAR     70  68  94 E7        29.79R
APPLETON       PTCLDY    75  70  83 SE7       29.73R
BENSON         CLOUDY    79  70  73 S12       29.76R
ORTONVILLE     PTCLDY    73  70  88 NE7       29.72S
MADISON        CLEAR     75  72  88 SE7       29.73R
WILLMAR        FAIR      73  70  88 SE8       29.78S
$$
MNZ033>034-036-042>043-049>051-058-059-220500-
   Central Minnesota

CITY           SKY/WX    TMP DP  RH WIND       PRES   REMARKS
ST CLOUD       MOCLDY    73  69  87 E6        29.80S
SAUK CENTRE    FAIR      70  67  90 E5        29.79S
PAYNESVILLE    MOCLDY    74  70  85 SE9       29.79S
AITKIN         PTCLDY    63  61  94 E5        29.83S
PINE RIVER     CLEAR     64  59  82 SE8       29.85S
BRAINERD       PTCLDY    71  67  87 SE8       29.82R
STAPLES        CLEAR     70  64  83 SE5       29.80S
LITTLE FALLS   CLEAR     70  61  73 SE6       29.80S
LITCHFIELD     CLEAR     77  73  88 SE5       29.79S
BUFFALO        MOCLDY    76  67  74 SE6       29.81S
MAPLE LAKE     MOCLDY    75  70  85 CALM      29.82R
HUTCHINSON     PTCLDY    75  72  88 SE5       29.81S
$$
MNZ037-044-045-052-053-220500-
   East Central Minnesota

CITY           SKY/WX    TMP DP  RH WIND       PRES   REMARKS
PRINCETON      PTCLDY    73  68  83 SE6       29.82R
MORA           PTCLDY    70  66  88 E3        29.85S
RUSH CITY      PTCLDY    72  65  80 SE7       29.84S
MOOSE LAKE     MOCLDY    61  57  88 NE5       29.86S
HINCKLEY       CLOUDY    72  68  88 E5        29.85S
CLOQUET        PTCLDY    59  54  82 E6        29.89S
MCGREGOR       PTCLDY    63  61  94 E5        29.86S
$$
MNZ071>073-080-081-089-090-097-098-220500-
   Southwest Minnesota

CITY           SKY/WX    TMP DP  RH WIND       PRES   REMARKS
MONTEVIDEO     PTCLDY    73  70  88 S7        29.74S
GRANITE FALLS  CLEAR     77  71  81 E8        29.76R
CANBY          CLEAR     71  69  93 SE7       29.74R
MARSHALL       CLEAR     73  70  90 SE7       29.74S
REDWOOD FALLS  PTCLDY    76  69  79 SE9       29.76R
OLIVIA         MOCLDY    77  70  78 SE7       29.76S
PIPESTONE      CLEAR     75  72  88 S7        29.76S
JACKSON        CLEAR     77  70  78 S13G18    29.81R
TRACY          CLEAR     77  72  85 S9        29.76R
SLAYTON        CLEAR     73  69  88 SE8       29.78S
$$
MNZ065>067-074>077-082>085-091>093-220500-
   South Central Minnesota

CITY           SKY/WX    TMP DP  RH WIND       PRES   REMARKS
MANKATO        CLOUDY    80  71  74 S17       29.81R
NEW ULM        PTCLDY    79  70  73 S10       29.78S
ST JAMES       CLEAR     77  70  78 SE14      29.80R
FAIRMONT       PTCLDY    77  71  82 S13       29.81R
GLENCOE        MOCLDY    78  73  85 SE7       29.80S
FARIBAULT      MOCLDY    81  70  69 SE13      29.85R
OWATONNA       PTCLDY    79  70  73 S15       29.85R
WASECA         CLOUDY    77  68  73 SE10G16   29.85R
ALBERT LEA     CLEAR     81  70  69 S15G22    29.86R
$$
MNZ078>079-086>088-094>096-220500-
   Southeast Minnesota

CITY           SKY/WX    TMP DP  RH WIND       PRES   REMARKS
ROCHESTER      CLEAR     72  67  84 SE10      29.90R
RED WING       MOCLDY    79  63  57 SE12      29.86R
STANTON        PTCLDY    76  68  74 S6        29.83S
DODGE CENTER   CLEAR     75  66  73 SE12      29.88S
WINONA         CLEAR     77  64  65 S5        29.90R
AUSTIN         CLEAR     75  66  73 S9        29.88R
PRESTON        CLEAR     73  65  77 S13       29.92S
$$
ABBREVIATIONS USED IN REMARKS
   TC - TEMPERATURES IN CELSIUS
  WCI - WIND CHILL INDEX
   HX - HEAT INDEX
  VSB - VISIBILITY
$$




USA.gov is the U.S. government's official web portal to all federal, state and local government web resources and services.